User: anonymous   Login
Location: Vancouver
(49.2500°N, 123.1330°W)
Time: 01:18:09
(UTC-07:00)
Language:

Iridium 21 - Orbit

View from above orbital plane
View from above orbital plane
View from above satellite
View from above satellite

Ground track
Ground track

The orbit data is extracted from the following two-line orbital elements,

1 25778U 99032B   15180.46396769  .00000065  00000-0  16066-4 0  9991
2 25778 086.3976 164.4074 0002243 085.5236 074.0533 14.34215979845099
Epoch (UTC): 29 June 2015 11:08:06
Eccentricity: 0.0002243
inclination: 86.3976°
perigee height: 776 km
apogee height: 779 km
right ascension of ascending node: 164.4074°
argument of perigee: 85.5236°
revolutions per day: 14.34215979
mean anomaly at epoch: 74.0533°
orbit number at epoch: 84509

The dashed part of the orbit path shows where the satellite is in the earth's shadow,  

DLR